Location: Jackson Park
(37.2862°N, 79.9123°W)
Time: 13:55:53
(UTC+00:00)

Vanguard 3 - Pass Details

Date: 16 May 2026
Orbit: 507 x 3204 km, 33.3° (Epoch: 6 June)

Event Time Altitude Azimuth Distance (km) Brightness Sun altitude
Rises 17:10:18 0° 223° (SW) 5,948 11.7 71.9°
Reaches altitude 10° 17:13:57 10° 218° (SW) 5,236 11.6 71.9°
Maximum altitude 17:29:52 51° 149° (SSE) 3,673 11.8 71.7°
Drops below altitude 10° 17:48:00 10° 81° (E) 5,920 11.6 70.6°
Sets 17:52:25 0° 77° (ENE) 6,746 11.7 70.3°
